Location: ????????
(55.4000°N, 39.1167°E)
Time: 03:01:28
(UTC+00:00)

Cosmos 1980 Rocket - Pass Details

Date: 19 May 2025
Orbit: 829 x 847 km, 71.0° (Epoch: 14 June)

Event Time Altitude Azimuth Distance (km) Brightness Sun altitude
Rises 20:46:59 0° 318° (NW) 3,384 6.3 -14.3°
Reaches altitude 10° 20:50:20 10° 298° (WNW) 2,446 5.1 -14.4°
Maximum altitude 20:53:35 16° 262° (W) 2,051 4.2 -14.4°
Drops below altitude 10° 20:56:50 10° 226° (SW) 2,440 4.2 -14.5°
Enters shadow 20:57:20 - 222° (SW) 2,553 4.3 -14.5°
